Location: An Tulaigh
(53.1928°N, 8.1647°W)
Time: 22:51:59
(UTC+00:00)

COSMOS 2428 - Pass Details

Date: 15 May 2026
Orbit: 844 x 855 km, 70.9° (Epoch: 6 June)

Event Time Altitude Azimuth Distance (km) Brightness Sun altitude
Rises 22:47:26 0° 328° (NNW) 3,428 7.7 -14.5°
Reaches altitude 10° 22:49:55 10° 331° (NNW) 2,487 6.6 -14.6°
Maximum altitude 22:55:37 69° 55° (NE) 911 2.9 -15.0°
Enters shadow 22:59:33 20° 135° (SE) 1,840 3.9 -15.2°
